Tracking 17141 objects as of 6-July-2015
HD Live streaming from Space Station

ECHOSTAR 1

Track ECHOSTAR 1 now!
ECHOSTAR 1 is classified as:


NORAD ID: 23754
Int'l Code: 1995-073A
Perigee: 35,782.9 km
Apogee: 35,805.2 km
Inclination: 0.0 °
Period: 1,436.1 minutes
Semi major axis: 42165 km
RCS: 30.9641 m2 (large)
Launch date: December 28, 1995
Source: United States (US)

Western United States to Central/Mountain region; 16 Ku-band transponders
Your satellite tracking list
Your tracking list is empty





NASA's NSSDC Master Catalog

Two Line Element Set (TLE):
1 23754U 95073A   15187.34359126 -.00000253  00000-0  00000+0 0  9990
2 23754 000.0193 032.4834 0002643 080.3178 217.7364 01.00270810 71346

Source of the keplerian elements: AFSPC

N2YO: 414